TimeEET,TemperatureF,Dew PointF,Humidity,Sea Level PressureIn,VisibilityMPH,Wind Direction,Wind SpeedMPH,Gust SpeedMPH,PrecipitationIn,Events,Conditions,WindDirDegrees,DateUTC
12:00 AM,75.2,64.4,69,29.89,6.2,NW,13.8,-,N/A,,Scattered Clouds,320,2013-07-01 22:00:00
1:00 AM,75.2,64.4,69,29.89,6.2,WNW,15.0,-,N/A,,Scattered Clouds,300,2013-07-01 23:00:00
2:00 AM,76,64,58,29.87,6,NW,12.7,,,,Partly Cloudy,320,2013-07-02 00:00:00
2:00 AM,75.2,64.4,69,29.86,6.2,NW,12.7,-,N/A,,Scattered Clouds,320,2013-07-02 00:00:00
3:00 AM,75.2,64.4,69,29.86,6.2,NNW,15.0,-,N/A,,Scattered Clouds,340,2013-07-02 01:00:00
4:00 AM,75.2,64.4,69,29.86,6.2,NW,13.8,-,N/A,,Scattered Clouds,320,2013-07-02 02:00:00
5:00 AM,75.2,62.6,65,29.83,6.2,NW,12.7,-,N/A,,Scattered Clouds,310,2013-07-02 03:00:00
6:00 AM,75.2,64.4,69,29.86,6.2,NW,11.5,-,N/A,,Scattered Clouds,310,2013-07-02 04:00:00
7:00 AM,77.0,66.2,69,29.86,6.2,NW,12.7,-,N/A,,Scattered Clouds,310,2013-07-02 05:00:00
8:00 AM,79,65,55,29.87,6,NW,12.7,,,,Partly Cloudy,310,2013-07-02 06:00:00
8:00 AM,78.8,66.2,65,29.86,6.2,NW,12.7,-,N/A,,Scattered Clouds,310,2013-07-02 06:00:00
9:00 AM,78.8,66.2,65,29.86,6.2,NW,12.7,-,N/A,,Scattered Clouds,310,2013-07-02 07:00:00
11:00 AM,82.4,69.8,66,29.86,6.2,WNW,11.5,-,N/A,,Scattered Clouds,300,2013-07-02 09:00:00
12:00 PM,82.4,69.8,66,29.86,6.2,NW,13.8,-,N/A,,Scattered Clouds,320,2013-07-02 10:00:00
1:00 PM,84.2,69.8,62,29.83,6.2,NW,16.1,-,N/A,,Scattered Clouds,310,2013-07-02 11:00:00
2:00 PM,85,69,50,29.84,6,WNW,13.8,,,,Partly Cloudy,300,2013-07-02 12:00:00
2:00 PM,84.2,69.8,62,29.83,6.2,WNW,13.8,-,N/A,,Scattered Clouds,300,2013-07-02 12:00:00
3:00 PM,82.4,69.8,66,29.83,6.2,NNW,16.1,-,N/A,,Scattered Clouds,330,2013-07-02 13:00:00
4:00 PM,82.4,69.8,66,29.83,6.2,NW,15.0,-,N/A,,Scattered Clouds,310,2013-07-02 14:00:00
5:00 PM,82.4,69.8,66,29.83,6.2,NNW,15.0,-,N/A,,Scattered Clouds,330,2013-07-02 15:00:00
6:00 PM,80.6,69.8,70,29.80,6.2,NNW,16.1,-,N/A,,Scattered Clouds,330,2013-07-02 16:00:00
7:00 PM,78.8,68.0,69,29.80,6.2,NNW,11.5,-,N/A,,Scattered Clouds,340,2013-07-02 17:00:00
8:00 PM,78,68,63,29.81,6,NNW,11.5,,,,Partly Cloudy,330,2013-07-02 18:00:00
8:00 PM,77.0,68.0,74,29.80,6.2,NNW,11.5,-,N/A,,Scattered Clouds,330,2013-07-02 18:00:00
9:00 PM,77.0,68.0,74,29.80,6.2,NNW,10.4,-,N/A,,Scattered Clouds,330,2013-07-02 19:00:00
10:00 PM,77.0,69.8,78,29.80,6.2,NW,9.2,-,N/A,,Scattered Clouds,320,2013-07-02 20:00:00
11:00 PM,75.2,68.0,78,29.83,6.2,NW,8.1,-,N/A,,Scattered Clouds,320,2013-07-02 21:00:00